Location: Newark
(45.8000°N, 5.7000°E)
Time: 22:13:28
(UTC+00:00)

N. Korean satellite - Visible Passes

Search period start: 11 November 2019 00:00
Search period end: 21 November 2019 00:00
Orbit: 456 x 506 km, 97.2° (Epoch: 10 November)

Date Brightness Start Highest point End Pass type
(mag) Time Alt. Az. Time Alt. Az. Time Alt. Az.
11 Nov 9.2 04:52:11 10° NE 04:55:19 25° E 04:58:25 10° SSE visible
11 Nov 7.9 17:02:37 10° S 17:06:03 44° W 17:09:34 10° NNW visible
12 Nov 10.1 04:27:54 10° ENE 04:29:44 13° E 04:31:35 10° ESE visible
12 Nov 6.9 05:59:48 10° N 06:03:24 48° WNW 06:07:00 10° SSW visible
12 Nov 6.6 16:37:04 10° SSE 16:40:39 87° ENE 16:44:19 10° NNW visible
13 Nov 6.7 05:34:21 10° NNE 05:38:06 82° ESE 05:41:48 10° S visible
13 Nov 10.0 17:46:57 10° SW 17:48:57 14° W 17:51:00 10° NW visible
14 Nov 8.2 05:09:09 10° NNE 05:12:41 39° E 05:16:10 10° SSE visible
14 Nov 9.0 17:20:16 10° SSW 17:23:23 27° W 17:26:34 10° NW visible
15 Nov 9.5 04:44:19 10° NE 04:47:10 20° E 04:49:58 10° SE visible
15 Nov 7.4 16:54:22 10° S 16:57:54 56° W 17:01:33 10° NNW visible
16 Nov 10.3 04:20:40 10° ENE 04:21:33 11° E 04:22:26 10° ESE visible
16 Nov 6.6 05:51:39 10° N 05:55:20 60° WNW 05:58:58 10° SSW visible
17 Nov 7.1 05:26:15 10° NNE 05:29:58 65° ESE 05:33:37 10° S visible
17 Nov 9.8 17:38:13 10° SW 17:40:45 18° W 17:43:18 10° NW visible
18 Nov 8.6 05:01:09 10° NNE 05:04:30 32° E 05:07:49 10° SSE visible
18 Nov 8.5 17:11:52 10° SSW 17:15:12 34° W 17:18:36 10° NNW visible
19 Nov 9.8 04:36:30 10° NE 04:38:57 17° E 04:41:22 10° SE visible
19 Nov 7.0 16:46:07 10° S 16:49:44 71° WSW 16:53:27 10° NNW visible
20 Nov 6.5 05:43:28 10° N 05:47:11 76° WNW 05:50:50 10° SSW visible
20 Nov 10.2 17:56:53 10° WSW 17:58:07 11° W 17:59:22 10° WNW visible
